TimeCST,TemperatureF,Dew PointF,Humidity,Sea Level PressureIn,VisibilityMPH,Wind Direction,Wind SpeedMPH,Gust SpeedMPH,PrecipitationIn,Events,Conditions,WindDirDegrees,DateUTC
12:15 AM,10.4,6.8,85,29.91,6.0,WNW,25.3,32.2,N/A,,Haze,300,2013-01-25 06:15:00
12:35 AM,8.6,5.0,85,29.91,1.8,WNW,29.9,41.4,N/A,Snow,Light Snow,300,2013-01-25 06:35:00
12:55 AM,8.6,5.0,85,29.92,1.8,WNW,28.8,39.1,N/A,Snow,Light Snow,300,2013-01-25 06:55:00
1:15 AM,6.8,1.4,79,29.93,2.5,WNW,27.6,38.0,N/A,Snow,Light Snow,300,2013-01-25 07:15:00
1:35 AM,6.8,1.4,79,29.94,2.5,WNW,27.6,39.1,N/A,Snow,Light Snow,300,2013-01-25 07:35:00
1:55 AM,6.8,-0.4,72,29.94,3.0,WNW,34.5,42.6,N/A,Snow,Light Snow,300,2013-01-25 07:55:00
2:35 AM,5.0,-2.2,72,29.96,9.0,NW,24.2,33.4,N/A,,Clear,310,2013-01-25 08:35:00
2:55 AM,3.2,-2.2,78,29.97,8.0,NW,23.0,35.7,N/A,,Clear,310,2013-01-25 08:55:00
3:15 AM,1.4,-4.0,78,29.98,10.0,NW,23.0,28.8,N/A,,Clear,320,2013-01-25 09:15:00
3:35 AM,1.4,-4.0,78,29.98,10.0,NW,23.0,31.1,N/A,,Clear,310,2013-01-25 09:35:00
3:55 AM,-0.4,-4.0,85,29.99,9.0,NW,28.8,34.5,N/A,,Clear,310,2013-01-25 09:55:00
4:15 AM,-0.4,-4.0,85,30.01,10.0,NW,23.0,29.9,N/A,,Clear,310,2013-01-25 10:15:00
4:35 AM,-0.4,-5.8,78,30.01,10.0,NW,23.0,28.8,N/A,,Clear,310,2013-01-25 10:35:00
4:55 AM,-0.4,-7.6,72,30.02,10.0,NW,21.9,-,N/A,,Clear,310,2013-01-25 10:55:00
5:15 AM,-0.4,-7.6,72,30.02,10.0,NW,21.9,-,N/A,,Clear,310,2013-01-25 11:15:00
5:35 AM,-2.2,-7.6,78,30.03,10.0,NW,21.9,27.6,N/A,,Clear,320,2013-01-25 11:35:00
5:55 AM,-2.2,-9.4,71,30.05,10.0,NW,17.3,21.9,N/A,,Clear,320,2013-01-25 11:55:00
6:15 AM,-2.2,-9.4,71,30.05,10.0,NW,20.7,-,N/A,,Clear,320,2013-01-25 12:15:00
6:35 AM,-4.0,-11.2,71,30.07,10.0,NNW,13.8,-,N/A,,Clear,330,2013-01-25 12:35:00
6:55 AM,-4.0,-11.2,71,30.08,10.0,NNW,17.3,-,N/A,,Clear,330,2013-01-25 12:55:00
7:35 AM,-5.8,-13.0,71,30.09,10.0,NNW,13.8,-,N/A,,Clear,330,2013-01-25 13:35:00
7:55 AM,-7.6,-13.0,77,30.11,10.0,NNW,13.8,-,N/A,,Clear,330,2013-01-25 13:55:00
8:15 AM,-7.6,-13.0,77,30.11,10.0,NW,15.0,-,N/A,,Clear,320,2013-01-25 14:15:00
8:35 AM,-7.6,-13.0,77,30.13,10.0,NW,15.0,-,N/A,,Clear,320,2013-01-25 14:35:00
8:55 AM,-7.6,-14.8,71,30.14,10.0,NW,16.1,-,N/A,,Clear,320,2013-01-25 14:55:00
9:15 AM,-7.6,-13.0,77,30.15,10.0,NW,12.7,-,N/A,,Clear,320,2013-01-25 15:15:00
9:35 AM,-7.6,-13.0,77,30.16,10.0,NNW,11.5,-,N/A,,Clear,330,2013-01-25 15:35:00
9:55 AM,-7.6,-13.0,77,30.17,10.0,NNW,11.5,-,N/A,,Clear,330,2013-01-25 15:55:00
10:15 AM,-7.6,-13.0,77,30.18,10.0,NW,13.8,-,N/A,,Clear,320,2013-01-25 16:15:00
10:35 AM,-5.8,-13.0,71,30.19,10.0,NW,11.5,-,N/A,,Clear,320,2013-01-25 16:35:00
10:55 AM,-5.8,-13.0,71,30.19,10.0,NNW,11.5,-,N/A,,Clear,330,2013-01-25 16:55:00
11:15 AM,-5.8,-13.0,71,30.21,10.0,NNW,10.4,-,N/A,,Clear,330,2013-01-25 17:15:00
11:35 AM,-4.0,-13.0,65,30.22,10.0,NW,9.2,-,N/A,,Clear,310,2013-01-25 17:35:00
11:55 AM,-4.0,-13.0,65,30.21,10.0,NW,9.2,-,N/A,,Clear,320,2013-01-25 17:55:00
12:15 PM,-4.0,-13.0,65,30.21,10.0,NW,6.9,-,N/A,,Clear,310,2013-01-25 18:15:00
12:35 PM,-4.0,-13.0,65,30.20,10.0,NW,6.9,-,N/A,,Clear,320,2013-01-25 18:35:00
12:55 PM,-4.0,-13.0,65,30.21,10.0,WNW,6.9,-,N/A,,Clear,300,2013-01-25 18:55:00
1:15 PM,-2.2,-11.2,66,30.20,10.0,WNW,4.6,-,N/A,,Clear,300,2013-01-25 19:15:00
1:35 PM,-2.2,-11.2,66,30.20,10.0,NW,6.9,-,N/A,,Clear,320,2013-01-25 19:35:00
1:55 PM,-2.2,-13.0,60,30.20,10.0,NW,5.8,-,N/A,,Clear,320,2013-01-25 19:55:00
2:15 PM,-2.2,-11.2,66,30.19,10.0,NW,4.6,-,N/A,,Clear,310,2013-01-25 20:15:00
2:35 PM,-2.2,-9999,N/A,30.18,10.0,NW,3.5,-,N/A,,Clear,310,2013-01-25 20:35:00
2:55 PM,-0.4,-9999,N/A,30.17,10.0,North,5.8,-,N/A,,Clear,350,2013-01-25 20:55:00
3:15 PM,-0.4,-13.0,55,30.16,10.0,Calm,Calm,-,N/A,,Clear,0,2013-01-25 21:15:00
3:35 PM,-0.4,-13.0,55,30.18,10.0,WSW,4.6,-,N/A,,Clear,250,2013-01-25 21:35:00
3:55 PM,-0.4,-11.2,60,30.18,10.0,Calm,Calm,-,N/A,,Clear,0,2013-01-25 21:55:00
4:15 PM,-0.4,-9999,N/A,30.19,10.0,WSW,3.5,-,N/A,,Clear,250,2013-01-25 22:15:00
4:35 PM,-0.4,-11.2,60,30.19,10.0,Calm,Calm,-,N/A,,Clear,0,2013-01-25 22:35:00
4:55 PM,-0.4,-9999,N/A,30.19,10.0,Calm,Calm,-,N/A,,Clear,0,2013-01-25 22:55:00
5:15 PM,-2.2,-11.2,66,30.17,10.0,East,4.6,-,N/A,,Clear,100,2013-01-25 23:15:00
5:35 PM,-2.2,-11.2,66,30.16,10.0,East,9.2,-,N/A,,Clear,90,2013-01-25 23:35:00
5:55 PM,-2.2,-11.2,66,30.18,10.0,SSE,3.5,-,N/A,,Clear,160,2013-01-25 23:55:00
6:15 PM,-2.2,-11.2,66,30.17,10.0,SSE,5.8,-,N/A,,Clear,160,2013-01-26 00:15:00
6:35 PM,-2.2,-11.2,66,30.19,10.0,SE,3.5,-,N/A,,Clear,140,2013-01-26 00:35:00
6:55 PM,-2.2,-11.2,66,30.17,10.0,SSE,4.6,-,N/A,,Clear,150,2013-01-26 00:55:00
7:15 PM,-2.2,-11.2,66,30.17,10.0,SSE,6.9,-,N/A,,Clear,150,2013-01-26 01:15:00
7:35 PM,-2.2,-9.4,71,30.17,10.0,SE,6.9,-,N/A,,Clear,140,2013-01-26 01:35:00
7:55 PM,-2.2,-9.4,71,30.17,10.0,SSE,6.9,-,N/A,,Clear,150,2013-01-26 01:55:00
8:15 PM,-2.2,-9.4,71,30.15,10.0,SSE,8.1,-,N/A,,Clear,150,2013-01-26 02:15:00
8:35 PM,-2.2,-9.4,71,30.15,10.0,SSE,9.2,-,N/A,,Clear,150,2013-01-26 02:35:00
8:55 PM,-2.2,-9.4,71,30.15,10.0,SE,9.2,-,N/A,,Clear,140,2013-01-26 02:55:00
9:15 PM,-2.2,-9.4,71,30.15,10.0,SSE,9.2,-,N/A,,Clear,150,2013-01-26 03:15:00
9:35 PM,-0.4,-9.4,66,30.14,10.0,SSE,10.4,-,N/A,,Scattered Clouds,160,2013-01-26 03:35:00
9:55 PM,-0.4,-7.6,72,30.14,10.0,SSE,10.4,-,N/A,,Mostly Cloudy,150,2013-01-26 03:55:00
10:15 PM,-0.4,-7.6,72,30.13,10.0,SSE,9.2,-,N/A,,Scattered Clouds,150,2013-01-26 04:15:00
10:35 PM,-0.4,-7.6,72,30.13,10.0,SE,10.4,-,N/A,,Partly Cloudy,140,2013-01-26 04:35:00
10:55 PM,-0.4,-7.6,72,30.12,10.0,SSE,11.5,-,N/A,,Scattered Clouds,150,2013-01-26 04:55:00
11:15 PM,-0.4,-7.6,72,30.11,10.0,SSE,12.7,-,N/A,,Overcast,150,2013-01-26 05:15:00
11:35 PM,-0.4,-5.8,78,30.11,10.0,SSE,15.0,18.4,N/A,,Overcast,150,2013-01-26 05:35:00
11:55 PM,1.4,-5.8,72,30.10,10.0,SSE,13.8,-,N/A,,Overcast,150,2013-01-26 05:55:00